W7KKE-3 Weather Reports


time (UTC)temp
C
wind
direction
speed
KPH
gust
KPH
rain 1hr
cm
rain 24hr
cm
rain mn
cm
humidity
%
barometer
mb
20260507030148 13 327 1.6 8.0 0.00 0.00 0.00 82 1018.1
20260507025650 13 331 4.8 9.7 0.00 0.00 0.00 82 1018.2
20260507025148 13 337 6.4 9.7 0.00 0.00 0.00 82 1018.2
20260507024648 13 322 6.4 9.7 0.00 0.00 0.00 81 1018.1
20260507024150 13 351 6.4 9.7 0.00 0.00 0.00 81 1018.1
20260507023648 13 333 6.4 9.7 0.00 0.00 0.00 81 1018.0
20260507023148 13 329 1.6 9.7 0.00 0.00 0.00 81 1018.1
20260507022649 13 330 4.8 9.7 0.00 0.00 0.00 81 1018.0
20260507022149 13 343 4.8 8.0 0.00 0.00 0.00 81 1018.0
20260507021648 13 350 6.4 12.9 0.00 0.00 0.00 81 1018.0
20260507021150 13 313 4.8 12.9 0.00 0.00 0.00 81 1018.1
20260507020649 14 341 6.4 12.9 0.00 0.00 0.00 81 1018.1
20260507020148 14 337 8.0 9.7 0.00 0.00 0.00 80 1018.1
20260507015649 14 357 6.4 9.7 0.00 0.00 0.00 80 1018.1
20260507015149 14 338 3.2 9.7 0.00 0.00 0.00 80 1018.1
20260507014648 14 319 4.8 9.7 0.00 0.00 0.00 80 1018.2
20260507014150 14 313 3.2 8.0 0.00 0.00 0.00 80 1018.2
20260507013648 14 306 1.6 8.0 0.00 0.00 0.00 80 1018.2
20260507013149 14 317 4.8 4.8 0.00 0.00 0.00 80 1018.3
20260507012650 14 306 3.2 4.8 0.00 0.00 0.00 80 1018.3
20260507012150 14 298 1.6 8.0 0.00 0.00 0.00 79 1018.3
20260507011150 14 289 1.6 8.0 0.00 0.00 0.00 79 1018.3
20260507010649 14 294 3.2 8.0 0.00 0.00 0.00 79 1018.4
20260507010148 14 326 4.8 8.0 0.00 0.00 0.00 79 1018.4
20260507005649 14 306 6.4 8.0 0.00 0.00 0.00 79 1018.5
20260507005148 14 278 4.8 9.7 0.00 0.00 0.00 79 1018.5
20260507004648 15 323 3.2 9.7 0.00 0.00 0.00 79 1018.4
20260507004150 15 287 3.2 9.7 0.00 0.00 0.00 79 1018.4
20260507003648 15 289 6.4 9.7 0.00 0.00 0.00 79 1018.5
20260507003149 15 299 3.2 9.7 0.00 0.00 0.00 80 1018.5
20260507002149 14 284 6.4 9.7 0.00 0.00 0.00 80 1018.5
20260507001648 14 292 8.0 9.7 0.00 0.00 0.00 80 1018.5
20260507001150 14 308 4.8 9.7 0.00 0.00 0.00 80 1018.6
20260507000149 14 310 6.4 9.7 0.00 0.00 0.00 80 1018.6
20260506235649 14 302 6.4 9.7 0.00 0.00 0.00 80 1018.6
20260506235148 14 303 8.0 11.3 0.00 0.00 0.00 80 1018.6
20260506234648 14 299 6.4 11.3 0.00 0.00 0.00 80 1018.6
20260506234151 14 308 4.8 11.3 0.00 0.00 0.00 79 1018.7
20260506233648 14 289 4.8 11.3 0.00 0.00 0.00 79 1018.7
20260506233149 14 288 8.0 12.9 0.00 0.00 0.00 79 1018.7
20260506232649 14 306 8.0 12.9 0.00 0.00 0.00 80 1018.7
20260506232148 14 301 8.0 12.9 0.00 0.00 0.00 79 1018.7
20260506231649 14 271 6.4 12.9 0.00 0.00 0.00 79 1018.8
20260506231150 14 296 4.8 12.9 0.00 0.00 0.00 79 1018.7
20260506230148 14 287 9.7 12.9 0.00 0.00 0.00 79 1018.8
20260506225649 14 315 6.4 12.9 0.00 0.00 0.00 79 1018.9
20260506225148 14 313 6.4 11.3 0.00 0.00 0.00 79 1018.8
20260506224150 14 306 6.4 11.3 0.00 0.00 0.00 78 1018.9
20260506223648 15 306 8.0 9.7 0.00 0.00 0.00 78 1019.0
20260506223149 15 299 6.4 14.5 0.00 0.00 0.00 78 1019.0
20260506222649 15 295 6.4 14.5 0.00 0.00 0.00 78 1019.1
20260506222148 15 294 8.0 14.5 0.00 0.00 0.00 78 1019.1
20260506221648 15 292 8.0 12.9 0.00 0.00 0.00 78 1019.1
20260506221150 15 288 6.4 12.9 0.00 0.00 0.00 78 1019.1
20260506220648 15 320 4.8 11.3 0.00 0.00 0.00 78 1019.0
20260506215649 15 274 9.7 12.9 0.00 0.00 0.00 78 1019.0
20260506215150 15 296 8.0 12.9 0.00 0.00 0.00 78 1018.9
20260506214649 15 295 6.4 14.5 0.00 0.00 0.00 77 1018.9
20260506214150 15 295 6.4 14.5 0.00 0.00 0.00 78 1018.8
20260506213148 15 295 9.7 12.9 0.00 0.00 0.00 78 1018.8
20260506212650 15 298 9.7 12.9 0.00 0.00 0.00 78 1018.8
20260506212149 15 301 8.0 11.3 0.00 0.00 0.00 78 1018.7
20260506211150 15 310 6.4 12.9 0.00 0.00 0.00 77 1018.8
20260506210648 15 291 6.4 12.9 0.00 0.00 0.00 77 1018.8
20260506210148 15 302 6.4 12.9 0.00 0.00 0.00 77 1018.8
20260506205148 15 274 8.0 9.7 0.00 0.00 0.00 77 1018.8
20260506204648 15 295 6.4 9.7 0.00 0.00 0.00 77 1018.8
20260506204150 15 294 4.8 9.7 0.00 0.00 0.00 76 1018.7
20260506203648 15 282 6.4 9.7 0.00 0.00 0.00 77 1018.6
20260506203149 15 288 8.0 11.3 0.00 0.00 0.00 78 1018.6
20260506202649 15 296 8.0 11.3 0.00 0.00 0.00 77 1018.6
20260506202150 15 298 8.0 11.3 0.00 0.00 0.00 77 1018.5
20260506201648 15 302 8.0 11.3 0.00 0.00 0.00 77 1018.6
20260506201150 15 301 6.4 11.3 0.00 0.00 0.00 78 1018.6
20260506200648 15 289 8.0 9.7 0.00 0.00 0.00 77 1018.6
20260506200148 15 284 4.8 8.0 0.00 0.00 0.00 78 1018.6
20260506195649 15 267 6.4 6.4 0.00 0.00 0.00 78 1018.6
20260506195148 15 289 4.8 6.4 0.00 0.00 0.00 78 1018.6
20260506194648 14 299 1.6 6.4 0.00 0.00 0.00 78 1018.7
20260506194150 14 287 4.8 6.4 0.00 0.00 0.00 78 1018.6
20260506193648 14 294 1.6 6.4 0.00 0.00 0.00 78 1018.7
20260506193149 14 287 3.2 9.7 0.00 0.00 0.00 79 1018.6
20260506192649 14 278 4.8 9.7 0.00 0.00 0.00 79 1018.6
20260506192148 14 296 6.4 9.7 0.00 0.00 0.00 78 1018.6
20260506191150 14 315 4.8 11.3 0.00 0.00 0.00 79 1018.5
20260506190649 14 294 3.2 11.3 0.00 0.00 0.00 79 1018.5
20260506190148 14 294 8.0 12.9 0.00 0.00 0.00 79 1018.6
20260506185649 14 306 6.4 12.9 0.00 0.00 0.00 79 1018.6
20260506185148 14 296 8.0 12.9 0.00 0.00 0.00 79 1018.6
20260506184648 14 274 8.0 12.9 0.00 0.00 0.00 79 1018.5
20260506184150 14 312 6.4 9.7 0.00 0.00 0.00 79 1018.5
20260506183648 14 309 4.8 9.7 0.00 0.00 0.00 79 1018.5
20260506183148 14 301 6.4 9.7 0.00 0.00 0.00 78 1018.4
20260506182649 14 308 8.0 8.0 0.00 0.00 0.00 78 1018.4
20260506182148 14 291 4.8 8.0 0.00 0.00 0.00 78 1018.4
20260506181648 14 250 4.8 8.0 0.00 0.00 0.00 78 1018.3
20260506181150 14 278 4.8 6.4 0.00 0.00 0.00 78 1018.2
20260506180648 14 275 4.8 6.4 0.00 0.00 0.00 78 1018.2
20260506180148 14 224 3.2 6.4 0.00 0.00 0.00 78 1018.2
20260506175650 14 219 1.6 8.0 0.00 0.00 0.00 77 1018.1
20260506175149 14 191 1.6 8.0 0.00 0.00 0.00 78 1018.0
20260506174648 14 252 1.6 8.0 0.00 0.00 0.00 79 1018.0
20260506174150 14 163 4.8 8.0 0.00 0.00 0.00 79 1018.0
20260506173649 14 238 3.2 8.0 0.00 0.00 0.00 78 1017.9
20260506173148 14 194 1.6 6.4 0.00 0.00 0.00 78 1017.9
20260506172649 14 249 3.2 6.4 0.00 0.00 0.00 79 1017.9
20260506172148 14 246 4.8 9.7 0.00 0.00 0.00 79 1017.9
20260506171648 14 212 4.8 9.7 0.00 0.00 0.00 79 1017.8
20260506171150 13 197 1.6 9.7 0.00 0.00 0.00 79 1017.7
20260506170649 14 260 1.6 8.0 0.00 0.00 0.00 79 1017.8
20260506165649 13 281 4.8 6.4 0.00 0.00 0.00 80 1017.7
20260506165148 13 228 0.0 6.4 0.00 0.00 0.00 80 1017.6
20260506164648 13 246 0.0 4.8 0.00 0.00 0.00 80 1017.6
20260506164150 13 267 1.6 4.8 0.00 0.00 0.00 80 1017.7
20260506163648 13 235 3.2 3.2 0.00 0.00 0.00 80 1017.7
20260506163148 13 249 0.0 6.4 0.00 0.00 0.00 80 1017.6
20260506162148 13 296 0.0 6.4 0.00 0.00 0.00 81 1017.6
20260506161648 13 273 3.2 6.4 0.00 0.00 0.00 81 1017.6
20260506161150 13 266 1.6 6.4 0.00 0.00 0.00 81 1017.5
20260506160648 13 201 3.2 6.4 0.00 0.00 0.00 81 1017.6
20260506155650 13 285 1.6 6.4 0.00 0.00 0.00 81 1017.5
20260506155148 13 261 1.6 4.8 0.00 0.00 0.00 81 1017.5
20260506154649 13 289 0.0 4.8 0.00 0.00 0.00 82 1017.4
20260506154151 13 268 1.6 4.8 0.00 0.00 0.00 82 1017.4
20260506153649 13 299 0.0 4.8 0.00 0.00 0.00 82 1017.3
20260506153148 13 284 0.0 4.8 0.00 0.00 0.00 82 1017.2
20260506152649 13 277 3.2 4.8 0.00 0.00 0.00 82 1017.2
20260506152148 13 0 1.6 1.6 0.00 0.00 0.00 82 1017.1
20260506151648 13 0 0.0 0.0 0.00 0.00 0.00 82 1016.9
20260506151150 13 0 0.0 4.8 0.00 0.00 0.00 82 1016.8
20260506150649 13 0 0.0 4.8 0.00 0.00 0.00 82 1016.8
20260506150148 13 278 0.0 4.8 0.00 0.00 0.00 82 1016.8
20260506145649 12 130 0.0 3.2 0.00 0.00 0.00 83 1017.0
20260506145148 12 142 1.6 1.6 0.00 0.00 0.00 83 1016.7
20260506144648 12 0 0.0 1.6 0.00 0.00 0.00 83 1016.6
20260506144151 12 0 0.0 1.6 0.00 0.00 0.00 83 1016.6
20260506143648 12 91 0.0 1.6 0.00 0.00 0.00 83 1016.9
20260506143148 12 78 0.0 1.6 0.00 0.00 0.00 83 1016.9
20260506142649 12 280 0.0 4.8 0.00 0.00 0.00 83 1016.9
20260506142148 12 347 0.0 4.8 0.00 0.00 0.00 83 1017.1
20260506141649 12 319 0.0 4.8 0.00 0.00 0.00 83 1017.0
20260506141150 12 324 0.0 9.7 0.00 0.00 0.00 83 1017.0
20260506140648 12 333 3.2 9.7 0.00 0.00 0.00 83 1016.9
20260506140148 12 334 1.6 9.7 0.00 0.00 0.00 83 1016.9
20260506135649 12 324 6.4 8.0 0.00 0.00 0.00 83 1017.0
20260506135148 12 306 4.8 6.4 0.00 0.00 0.00 83 1017.0
20260506134648 12 295 0.0 3.2 0.00 0.00 0.00 83 1016.8
20260506134150 12 0 0.0 0.0 0.00 0.00 0.00 83 1016.6
20260506133648 12 0 0.0 0.0 0.00 0.00 0.00 83 1016.5
20260506133148 12 0 0.0 0.0 0.00 0.00 0.00 83 1016.4
20260506132649 12 0 0.0 0.0 0.00 0.00 0.00 83 1016.4
20260506132148 12 0 0.0 6.4 0.00 0.00 0.00 83 1016.5
20260506131648 12 0 0.0 6.4 0.00 0.00 0.00 82 1016.4
20260506131152 12 226 0.0 6.4 0.00 0.00 0.00 82 1016.5
20260506130649 12 287 3.2 3.2 0.00 0.00 0.00 83 1016.4
20260506130148 12 0 0.0 0.0 0.00 0.00 0.00 83 1016.5
20260506125649 12 0 0.0 0.0 0.00 0.00 0.00 83 1016.4
20260506124648 12 0 0.0 0.0 0.00 0.00 0.00 83 1016.2
20260506124150 12 0 0.0 0.0 0.00 0.00 0.00 82 1016.2
20260506123648 12 0 0.0 0.0 0.00 0.00 0.00 83 1016.1
20260506123148 12 0 0.0 0.0 0.00 0.00 0.00 83 1016.0
20260506122649 12 0 0.0 0.0 0.00 0.00 0.00 83 1016.1
20260506122148 12 0 0.0 8.0 0.00 0.00 0.00 82 1016.0
20260506121648 12 0 0.0 8.0 0.00 0.00 0.00 82 1015.9
20260506121150 12 207 0.0 8.0 0.00 0.00 0.00 82 1015.8
20260506120648 12 0 1.6 1.6 0.00 0.00 0.00 82 1015.8
20260506120148 12 0 0.0 0.0 0.00 0.00 0.00 82 1015.9
20260506115649 12 0 0.0 0.0 0.00 0.00 0.00 82 1016.0
20260506115148 12 0 0.0 4.8 0.00 0.00 0.00 82 1015.9
20260506114648 12 116 0.0 4.8 0.00 0.00 0.00 82 1015.9
20260506114150 12 238 0.0 4.8 0.00 0.00 0.00 82 1015.8
20260506113648 12 0 1.6 1.6 0.00 0.00 0.00 82 1015.8
20260506113148 12 0 0.0 0.0 0.00 0.00 0.00 82 1015.9
20260506112649 12 0 0.0 0.0 0.00 0.00 0.00 82 1015.9
20260506112148 12 0 0.0 0.0 0.00 0.00 0.00 82 1015.9
20260506111648 12 0 0.0 0.0 0.00 0.00 0.00 82 1015.8
20260506111150 12 0 0.0 0.0 0.00 0.00 0.00 82 1015.8
20260506110648 12 0 0.0 0.0 0.00 0.00 0.00 82 1015.9
20260506105649 12 0 0.0 11.3 0.00 0.00 0.00 82 1015.8
20260506105148 12 288 0.0 11.3 0.00 0.00 0.00 82 1015.8
20260506104648 12 299 4.8 11.3 0.00 0.00 0.00 82 1015.8
20260506104150 12 275 3.2 6.4 0.00 0.00 0.00 82 1015.7
20260506103648 12 289 3.2 4.8 0.00 0.00 0.00 82 1015.7
20260506103148 12 299 1.6 4.8 0.00 0.00 0.00 82 1015.6
20260506102649 12 333 1.6 4.8 0.00 0.00 0.00 82 1015.6
20260506102148 12 285 3.2 6.4 0.00 0.00 0.00 83 1015.5
20260506101648 12 277 1.6 6.4 0.00 0.00 0.00 83 1015.4
20260506101150 12 313 1.6 6.4 0.00 0.00 0.00 83 1015.4
20260506100648 12 320 3.2 12.9 0.00 0.00 0.00 83 1015.3
20260506100148 12 316 4.8 12.9 0.00 0.00 0.00 83 1015.3
20260506095649 12 299 6.4 12.9 0.00 0.00 0.00 83 1015.4
20260506095148 12 303 4.8 9.7 0.00 0.00 0.00 83 1015.3
20260506094648 12 278 3.2 11.3 0.00 0.00 0.00 83 1015.3
20260506094150 12 302 4.8 11.3 0.00 0.00 0.00 83 1015.2
20260506093648 12 319 6.4 11.3 0.00 0.00 0.00 83 1015.1
20260506093148 12 320 1.6 9.7 0.00 0.00 0.00 83 1015.1
20260506092649 13 296 3.2 9.7 0.00 0.00 0.00 83 1015.1
20260506092148 12 301 3.2 8.0 0.00 0.00 0.00 83 1015.1
20260506091648 13 0 0.0 0.0 0.00 0.00 0.00 83 1015.0
20260506091149 13 0 0.0 0.0 0.00 0.00 0.00 83 1015.0
20260506090647 12 0 0.0 0.0 0.00 0.00 0.00 83 1015.0
20260506085649 12 0 0.0 0.0 0.00 0.03 0.00 83 1014.9
20260506084648 12 0 0.0 0.0 0.00 0.03 0.00 83 1014.9
20260506084150 13 0 0.0 0.0 0.00 0.03 0.00 83 1014.9
20260506083648 12 0 0.0 0.0 0.00 0.03 0.00 83 1014.9
20260506083147 13 0 0.0 0.0 0.00 0.03 0.00 83 1014.9
20260506082650 13 0 0.0 0.0 0.00 0.03 0.00 83 1014.9
20260506082147 13 0 0.0 0.0 0.00 0.03 0.00 83 1014.8
20260506081648 13 0 0.0 0.0 0.00 0.03 0.00 83 1014.8
20260506081151 13 0 0.0 0.0 0.00 0.03 0.00 83 1014.7
20260506080647 13 0 0.0 0.0 0.00 0.03 0.00 83 1014.7
20260506073147 13 0 0.0 0.0 0.00 0.03 0.00 83 1014.3
20260506072649 13 0 0.0 0.0 0.00 0.03 0.00 82 1014.2
20260506072147 13 0 0.0 0.0 0.00 0.03 0.00 83 1014.2
20260506071647 13 0 0.0 0.0 0.00 0.03 0.00 83 1014.1
20260506071150 13 0 0.0 0.0 0.00 0.03 0.00 83 1014.1
20260506070647 13 0 0.0 0.0 0.00 0.03 0.00 82 1014.0
20260506062147 13 0 0.0 0.0 0.00 0.03 0.03 82 1013.9
20260506061647 13 0 0.0 0.0 0.00 0.03 0.03 82 1013.9
20260506061149 13 0 0.0 0.0 0.00 0.03 0.03 82 1013.9
20260506060147 13 0 0.0 0.0 0.00 0.05 0.03 82 1013.8
20260506051149 13 0 0.0 0.0 0.00 0.05 0.03 82 1013.9
20260506050647 13 0 0.0 0.0 0.00 0.05 0.03 82 1014.0
20260506050147 13 0 0.0 0.0 0.00 0.05 0.03 82 1013.9
20260506044647 13 0 0.0 0.0 0.00 0.05 0.03 82 1013.8
20260506044149 13 0 0.0 0.0 0.00 0.05 0.03 82 1013.6
20260506043647 13 0 0.0 0.0 0.00 0.05 0.03 82 1013.7
20260506043147 13 0 0.0 0.0 0.00 0.05 0.03 82 1013.6
20260506042648 13 0 0.0 0.0 0.00 0.05 0.03 82 1013.5
20260506042147 13 0 0.0 0.0 0.00 0.05 0.03 82 1013.5
20260506041647 13 0 0.0 0.0 0.00 0.05 0.03 82 1013.6
20260506041150 13 0 0.0 0.0 0.00 0.05 0.03 81 1013.5
20260506040647 13 0 0.0 0.0 0.00 0.05 0.03 81 1013.4
20260506040147 13 0 0.0 4.8 0.00 0.05 0.03 81 1013.3
20260506035648 13 0 0.0 4.8 0.00 0.05 0.03 81 1013.3
20260506035147 13 315 0.0 4.8 0.00 0.05 0.03 81 1013.2
20260506034648 13 330 0.0 3.2 0.00 0.05 0.03 81 1013.2
20260506034149 13 336 1.6 6.4 0.00 0.05 0.03 81 1013.1
20260506033648 13 343 1.6 6.4 0.00 0.05 0.03 81 1013.1
20260506033147 13 326 3.2 6.4 0.00 0.05 0.03 81 1012.9
20260506032648 13 324 4.8 6.4 0.00 0.05 0.03 81 1012.9
20260506032147 13 331 3.2 8.0 0.00 0.05 0.03 81 1012.8
20260506031647 13 331 1.6 8.0 0.00 0.05 0.03 81 1012.8
20260506031150 13 329 4.8 8.0 0.00 0.05 0.03 81 1012.8
20260506030648 14 323 3.2 6.4 0.00 0.05 0.03 81 1012.8